Airfield :
LOGIN :

Register | Disclaimer

   EN    FR    IT 

 










Legend :    VFR   Marginal VFR   IFR   Intensive IFR   Very Intensive IFR
Visi :
Ceiling :
>= 8 km
>= 3000ft
5 to 8 km
1000 to 3000 ft
1500m to 5 km
500 to 1000 ft
800 to 1500m
200 to 500 ft
< 800m
< 200 ft
Symbols :   Thunderstorms  Fog  Heavy snow  Heavy precipitations  Wind > 20 kt
SIGMETs :     Misc.  Thunderstorms  Icing  Turbulence  Mountain Waves  Volcanic Ashes







- Airport Elevation : 1989 ft
- IATA code : KLV


LKKV - Karlovy Vary

CURRENT METAR :
  • 281630Z 26009KT 230V290 9999 FEW046 19/09 Q1015

EXPIRED METARs :
  • 281600Z 27011KT 230V300 9999 FEW046 19/08 Q1015
  • 281530Z 26009KT 220V290 9999 FEW046 19/08 Q1015
  • 281500Z 26010KT 220V300 CAVOK 19/08 Q1015
  • 281430Z 26013KT 220V280 9999 SCT046 19/08 Q1015
  • 281400Z 26013KT 220V290 9999 SCT046 19/08 Q1015

TAF TAF LKKV
Valid from the 28 at 06:00 until the 29 at 12:00 UTC


280500Z 2806/2912 22005KT 9999 SCT030
TEMPO 2806/2813 29012KT 8000 -SHRA SCT020TCU BKN022
No reported NOTAMs for that airfield.



MET'MAP, your aeronautical weather chart ! - Copyright ORBIFLY December 2007 - Disclaimer

ORBIFLY MET'MAP TEAM :

Programming & Development : Alexandra Zaïnal
Concept & Development : Baudouin d'Aumeries
Co-Development & Prog : Marc-Olivier Méhu
Technical & hardware support : Manuel Goepfert

Contact : metmap@orbifly.com




SOURCES & CREDITS :

   NOAA